Year,Month,Day,Hour,Minute,Value (Times are PST for temperature in C)
2017,02,14,00,00,2.70
2017,02,14,00,01,2.70
2017,02,14,00,02,2.60
2017,02,14,00,03,2.60
2017,02,14,00,04,2.60
2017,02,14,00,05,2.60
2017,02,14,00,06,2.60
2017,02,14,00,07,2.60
2017,02,14,00,08,2.60
2017,02,14,00,09,2.50
2017,02,14,00,10,2.50
2017,02,14,00,11,2.50
2017,02,14,00,12,2.50
2017,02,14,00,13,2.40
2017,02,14,00,14,2.40
2017,02,14,00,15,2.40
2017,02,14,00,16,2.40
2017,02,14,00,17,2.40
2017,02,14,00,18,2.40
2017,02,14,00,19,2.40
2017,02,14,00,20,2.40
2017,02,14,00,21,2.50
2017,02,14,00,22,2.50
2017,02,14,00,23,2.50
2017,02,14,00,24,2.50
2017,02,14,00,25,2.50
2017,02,14,00,26,2.40
2017,02,14,00,27,2.50
2017,02,14,00,28,2.50
2017,02,14,00,29,2.50
2017,02,14,00,30,2.50
2017,02,14,00,31,2.50
2017,02,14,00,32,2.50
2017,02,14,00,33,2.50
2017,02,14,00,34,2.60
2017,02,14,00,35,2.60
2017,02,14,00,36,2.50
2017,02,14,00,37,2.50
2017,02,14,00,38,2.50
2017,02,14,00,39,2.50
2017,02,14,00,40,2.40
2017,02,14,00,41,2.40
2017,02,14,00,42,2.40
2017,02,14,00,43,2.40
2017,02,14,00,44,2.40
2017,02,14,00,45,2.40
2017,02,14,00,46,2.40
2017,02,14,00,47,2.40
2017,02,14,00,48,2.30
2017,02,14,00,49,2.30
2017,02,14,00,50,2.30
2017,02,14,00,51,2.30
2017,02,14,00,52,2.30
2017,02,14,00,53,2.20
2017,02,14,00,54,2.30
2017,02,14,00,55,2.30
2017,02,14,00,56,2.30
2017,02,14,00,57,2.30
2017,02,14,00,58,2.30
2017,02,14,00,59,2.30
2017,02,14,01,00,2.30
2017,02,14,01,01,2.30
2017,02,14,01,02,2.30
2017,02,14,01,03,2.30
2017,02,14,01,04,2.20
2017,02,14,01,05,2.20
2017,02,14,01,06,2.10
2017,02,14,01,07,2.10
2017,02,14,01,08,2.10
2017,02,14,01,09,2.10
2017,02,14,01,10,2.10
2017,02,14,01,11,2.10
2017,02,14,01,12,2.10
2017,02,14,01,13,2.20
2017,02,14,01,14,2.20
2017,02,14,01,15,2.20
2017,02,14,01,16,2.10
2017,02,14,01,17,2.10
2017,02,14,01,18,2.10
2017,02,14,01,19,2.10
2017,02,14,01,20,2.10
2017,02,14,01,21,2.10
2017,02,14,01,22,2.10
2017,02,14,01,23,2.10
2017,02,14,01,24,2.10
2017,02,14,01,25,2.10
2017,02,14,01,26,2.10
2017,02,14,01,27,2.00
2017,02,14,01,28,2.00
2017,02,14,01,29,1.90
2017,02,14,01,30,1.90
2017,02,14,01,31,1.90
2017,02,14,01,32,1.90
2017,02,14,01,33,1.90
2017,02,14,01,34,1.90
2017,02,14,01,35,1.90
2017,02,14,01,36,1.90
2017,02,14,01,37,1.90
2017,02,14,01,38,2.00
2017,02,14,01,39,2.00
2017,02,14,01,40,2.10
2017,02,14,01,41,2.10
2017,02,14,01,42,2.20
2017,02,14,01,43,2.20
2017,02,14,01,44,2.20
2017,02,14,01,45,2.20
2017,02,14,01,46,2.20
2017,02,14,01,47,2.20
2017,02,14,01,48,2.20
2017,02,14,01,49,2.20
2017,02,14,01,50,2.20
2017,02,14,01,51,2.10
2017,02,14,01,52,2.20
2017,02,14,01,53,2.20
2017,02,14,01,54,2.20
2017,02,14,01,55,2.20
2017,02,14,01,56,2.10
2017,02,14,01,57,2.10
2017,02,14,01,58,2.20
2017,02,14,01,59,2.20
2017,02,14,02,00,2.20
2017,02,14,02,01,2.30
2017,02,14,02,02,2.40
2017,02,14,02,03,2.40
2017,02,14,02,04,2.50
2017,02,14,02,05,2.50
2017,02,14,02,06,2.60
2017,02,14,02,07,2.60
2017,02,14,02,08,2.60
2017,02,14,02,09,2.60
2017,02,14,02,10,2.60
2017,02,14,02,11,2.60
2017,02,14,02,12,2.60
2017,02,14,02,13,2.60
2017,02,14,02,14,2.60
2017,02,14,02,15,2.70
2017,02,14,02,16,2.70
2017,02,14,02,17,2.80
2017,02,14,02,18,2.80
2017,02,14,02,19,2.80
2017,02,14,02,20,2.80
2017,02,14,02,21,2.80
2017,02,14,02,22,2.80
2017,02,14,02,23,2.80
2017,02,14,02,24,2.80
2017,02,14,02,25,2.80
2017,02,14,02,26,2.80
2017,02,14,02,27,2.80
2017,02,14,02,28,2.90
2017,02,14,02,29,2.90
2017,02,14,02,30,2.90
2017,02,14,02,31,2.90
2017,02,14,02,32,2.80
2017,02,14,02,33,2.80
2017,02,14,02,34,2.80
2017,02,14,02,35,2.80
2017,02,14,02,36,2.80
2017,02,14,02,37,2.70
2017,02,14,02,38,2.70
2017,02,14,02,39,2.70
2017,02,14,02,40,2.60
2017,02,14,02,41,2.60
2017,02,14,02,42,2.60
2017,02,14,02,43,2.60
2017,02,14,02,44,2.50
2017,02,14,02,45,2.50
2017,02,14,02,46,2.50
2017,02,14,02,47,2.50
2017,02,14,02,48,2.40
2017,02,14,02,49,2.40
2017,02,14,02,50,2.40
2017,02,14,02,51,2.30
2017,02,14,02,52,2.30
2017,02,14,02,53,2.30
2017,02,14,02,54,2.30
2017,02,14,02,55,2.30
2017,02,14,02,56,2.30
2017,02,14,02,57,2.30
2017,02,14,02,58,2.30
2017,02,14,02,59,2.30
2017,02,14,03,00,2.30
2017,02,14,03,01,2.30
2017,02,14,03,02,2.30
2017,02,14,03,03,2.30
2017,02,14,03,04,2.30
2017,02,14,03,05,2.30
2017,02,14,03,06,2.30
2017,02,14,03,07,2.30
2017,02,14,03,08,2.30
2017,02,14,03,09,2.30
2017,02,14,03,10,2.20
2017,02,14,03,11,2.20
2017,02,14,03,12,2.20
2017,02,14,03,13,2.20
2017,02,14,03,14,2.10
2017,02,14,03,15,2.10
2017,02,14,03,16,2.00
2017,02,14,03,17,1.90
2017,02,14,03,18,1.90
2017,02,14,03,19,1.90
2017,02,14,03,20,1.80
2017,02,14,03,21,1.80
2017,02,14,03,22,1.80
2017,02,14,03,23,1.80
2017,02,14,03,24,1.80
2017,02,14,03,25,1.80
2017,02,14,03,26,1.80
2017,02,14,03,27,1.70
2017,02,14,03,28,1.70
2017,02,14,03,29,1.70
2017,02,14,03,30,1.70
2017,02,14,03,31,1.80
2017,02,14,03,32,1.80
2017,02,14,03,33,1.80
2017,02,14,03,34,1.80
2017,02,14,03,35,1.90
2017,02,14,03,36,1.90
2017,02,14,03,37,1.90
2017,02,14,03,38,1.90
2017,02,14,03,39,1.90
2017,02,14,03,40,1.90
2017,02,14,03,41,1.90
2017,02,14,03,42,1.90
2017,02,14,03,43,1.80
2017,02,14,03,44,1.80
2017,02,14,03,45,1.80
2017,02,14,03,46,1.80
2017,02,14,03,47,1.70
2017,02,14,03,48,1.70
2017,02,14,03,49,1.70
2017,02,14,03,50,1.70
2017,02,14,03,51,1.70
2017,02,14,03,52,1.70
2017,02,14,03,53,1.60
2017,02,14,03,54,1.60
2017,02,14,03,55,1.60
2017,02,14,03,56,1.60
2017,02,14,03,57,1.60
2017,02,14,03,58,1.60
2017,02,14,03,59,1.50
2017,02,14,04,00,1.40
2017,02,14,04,01,1.40
2017,02,14,04,02,1.40
2017,02,14,04,03,1.40
2017,02,14,04,04,1.40
2017,02,14,04,05,1.40
2017,02,14,04,06,1.50
2017,02,14,04,07,1.50
2017,02,14,04,08,1.50
2017,02,14,04,09,1.60
2017,02,14,04,10,1.60
2017,02,14,04,11,1.60
2017,02,14,04,12,1.60
2017,02,14,04,13,1.60
2017,02,14,04,14,1.60
2017,02,14,04,15,1.60
2017,02,14,04,16,1.60
2017,02,14,04,17,1.60
2017,02,14,04,18,1.60
2017,02,14,04,19,1.50
2017,02,14,04,20,1.50
2017,02,14,04,21,1.40
2017,02,14,04,22,1.40
2017,02,14,04,23,1.40
2017,02,14,04,24,1.40
2017,02,14,04,25,1.50
2017,02,14,04,26,1.60
2017,02,14,04,27,1.60
2017,02,14,04,28,1.70
2017,02,14,04,29,1.70
2017,02,14,04,30,1.70
2017,02,14,04,31,1.70
2017,02,14,04,32,1.70
2017,02,14,04,33,1.60
2017,02,14,04,34,1.60
2017,02,14,04,35,1.50
2017,02,14,04,36,1.50
2017,02,14,04,37,1.40
2017,02,14,04,38,1.40
2017,02,14,04,39,1.40
2017,02,14,04,40,1.30
2017,02,14,04,41,1.40
2017,02,14,04,42,1.40
2017,02,14,04,43,1.40
2017,02,14,04,44,1.50
2017,02,14,04,45,1.50
2017,02,14,04,46,1.50
2017,02,14,04,47,1.50
2017,02,14,04,48,1.50
2017,02,14,04,49,1.50
2017,02,14,04,50,1.40
2017,02,14,04,51,1.40
2017,02,14,04,52,1.50
2017,02,14,04,53,1.50
2017,02,14,04,54,1.50
2017,02,14,04,55,1.60
2017,02,14,04,56,1.60
2017,02,14,04,57,1.60
2017,02,14,04,58,1.60
2017,02,14,04,59,1.60
2017,02,14,05,00,1.60
2017,02,14,05,01,1.60
2017,02,14,05,02,1.60
2017,02,14,05,03,1.60
2017,02,14,05,04,1.60
2017,02,14,05,05,1.60
2017,02,14,05,06,1.60
2017,02,14,05,07,1.60
2017,02,14,05,08,1.60
2017,02,14,05,09,1.70
2017,02,14,05,10,1.70
2017,02,14,05,11,1.60
2017,02,14,05,12,1.60
2017,02,14,05,13,1.60
2017,02,14,05,14,1.60
2017,02,14,05,15,1.60
2017,02,14,05,16,1.60
2017,02,14,05,17,1.50
2017,02,14,05,18,1.50
2017,02,14,05,19,1.50
2017,02,14,05,20,1.60
2017,02,14,05,21,1.60
2017,02,14,05,22,1.60
2017,02,14,05,23,1.70
2017,02,14,05,24,1.70
2017,02,14,05,25,1.80
2017,02,14,05,26,1.80
2017,02,14,05,27,1.80
2017,02,14,05,28,1.80
2017,02,14,05,29,1.90
2017,02,14,05,30,1.90
2017,02,14,05,31,1.90
2017,02,14,05,32,1.90
2017,02,14,05,33,1.90
2017,02,14,05,34,1.90
2017,02,14,05,35,2.00
2017,02,14,05,36,2.00
2017,02,14,05,37,2.00
2017,02,14,05,38,2.00
2017,02,14,05,39,2.10
2017,02,14,05,40,2.10
2017,02,14,05,41,2.10
2017,02,14,05,42,2.20
2017,02,14,05,43,2.20
2017,02,14,05,44,2.20
2017,02,14,05,45,2.30
2017,02,14,05,46,2.30
2017,02,14,05,47,2.30
2017,02,14,05,48,2.30
2017,02,14,05,49,2.30
2017,02,14,05,50,2.30
2017,02,14,05,51,2.40
2017,02,14,05,52,2.40
2017,02,14,05,53,2.40
2017,02,14,05,54,2.40
2017,02,14,05,55,2.40
2017,02,14,05,56,2.40
2017,02,14,05,57,2.40
2017,02,14,05,58,2.40
2017,02,14,05,59,2.40
2017,02,14,06,00,2.50
2017,02,14,06,01,2.50
2017,02,14,06,02,2.50
2017,02,14,06,03,2.50
2017,02,14,06,04,2.50
2017,02,14,06,05,2.50
2017,02,14,06,06,2.50
2017,02,14,06,07,2.50
2017,02,14,06,08,2.50
2017,02,14,06,09,2.60
2017,02,14,06,10,2.60
2017,02,14,06,11,2.60
2017,02,14,06,12,2.60
2017,02,14,06,13,2.60
2017,02,14,06,14,2.60
2017,02,14,06,15,2.60
2017,02,14,06,16,2.60
2017,02,14,06,17,2.60
2017,02,14,06,18,2.70
2017,02,14,06,19,2.70
2017,02,14,06,20,2.70
2017,02,14,06,21,2.70
2017,02,14,06,22,2.70
2017,02,14,06,23,2.70
2017,02,14,06,24,2.70
2017,02,14,06,25,2.70
2017,02,14,06,26,2.80
2017,02,14,06,27,2.80
2017,02,14,06,28,2.80
2017,02,14,06,29,2.80
2017,02,14,06,30,2.80
2017,02,14,06,31,2.80
2017,02,14,06,32,2.80
2017,02,14,06,33,2.80
2017,02,14,06,34,2.80
2017,02,14,06,35,2.80
2017,02,14,06,36,2.80
2017,02,14,06,37,2.80
2017,02,14,06,38,2.80
2017,02,14,06,39,2.80
2017,02,14,06,40,2.80
2017,02,14,06,41,2.80
2017,02,14,06,42,2.80
2017,02,14,06,43,2.80
2017,02,14,06,44,2.80
2017,02,14,06,45,2.80
2017,02,14,06,46,2.80
2017,02,14,06,47,2.80
2017,02,14,06,48,2.80
2017,02,14,06,49,2.80
2017,02,14,06,50,2.80
2017,02,14,06,51,2.90
2017,02,14,06,52,2.90
2017,02,14,06,53,2.90
2017,02,14,06,54,2.90
2017,02,14,06,55,2.90
2017,02,14,06,56,2.90
2017,02,14,06,57,2.90
2017,02,14,06,58,2.90
2017,02,14,06,59,2.90
2017,02,14,07,00,2.90
2017,02,14,07,01,2.90
2017,02,14,07,02,2.90
2017,02,14,07,03,2.90
2017,02,14,07,04,2.90
2017,02,14,07,05,2.90
2017,02,14,07,06,2.90
2017,02,14,07,07,2.90
2017,02,14,07,08,2.90
2017,02,14,07,09,2.90
2017,02,14,07,10,2.90
2017,02,14,07,11,2.90
2017,02,14,07,12,2.90
2017,02,14,07,13,2.90
2017,02,14,07,14,2.90
2017,02,14,07,15,2.90
2017,02,14,07,16,3.00
2017,02,14,07,17,3.00
2017,02,14,07,18,3.00
2017,02,14,07,19,3.00
2017,02,14,07,20,3.00
2017,02,14,07,21,3.10
2017,02,14,07,22,3.10
2017,02,14,07,23,3.10
2017,02,14,07,24,3.10
2017,02,14,07,25,3.10
2017,02,14,07,26,3.10
2017,02,14,07,27,3.10
2017,02,14,07,28,3.10
2017,02,14,07,29,3.10
2017,02,14,07,30,3.10
2017,02,14,07,31,3.20
2017,02,14,07,32,3.20
2017,02,14,07,33,3.20
2017,02,14,07,34,3.20
2017,02,14,07,35,3.20
2017,02,14,07,36,3.20
2017,02,14,07,37,3.20
2017,02,14,07,38,3.20
2017,02,14,07,39,3.20
2017,02,14,07,40,3.20
2017,02,14,07,41,3.20
2017,02,14,07,42,3.20
2017,02,14,07,43,3.20
2017,02,14,07,44,3.20
2017,02,14,07,45,3.20
2017,02,14,07,46,3.20
2017,02,14,07,47,3.20
2017,02,14,07,48,3.20
2017,02,14,07,49,3.20
2017,02,14,07,50,3.20
2017,02,14,07,51,3.20
2017,02,14,07,52,3.20
2017,02,14,07,53,3.20
2017,02,14,07,54,3.20
2017,02,14,07,55,3.20
2017,02,14,07,56,3.20
2017,02,14,07,57,3.20
2017,02,14,07,58,3.20
2017,02,14,07,59,3.20
2017,02,14,08,00,3.20
2017,02,14,08,01,3.20
2017,02,14,08,02,3.20
2017,02,14,08,03,3.20
2017,02,14,08,04,3.20
2017,02,14,08,05,3.20
2017,02,14,08,06,3.20
2017,02,14,08,07,3.30
2017,02,14,08,08,3.30
2017,02,14,08,09,3.30
2017,02,14,08,10,3.30
2017,02,14,08,11,3.30
2017,02,14,08,12,3.30
2017,02,14,08,13,3.30
2017,02,14,08,14,3.30
2017,02,14,08,15,3.30
2017,02,14,08,16,3.30
2017,02,14,08,17,3.30
2017,02,14,08,18,3.30
2017,02,14,08,19,3.30
2017,02,14,08,20,3.40
2017,02,14,08,21,3.40
2017,02,14,08,22,3.40
2017,02,14,08,23,3.40
2017,02,14,08,24,3.40
2017,02,14,08,25,3.50
2017,02,14,08,26,3.50
2017,02,14,08,27,3.60
2017,02,14,08,28,3.60
2017,02,14,08,29,3.60
2017,02,14,08,30,3.60
2017,02,14,08,31,3.70
2017,02,14,08,32,3.70
2017,02,14,08,33,3.70
2017,02,14,08,34,3.70
2017,02,14,08,35,3.70
2017,02,14,08,36,3.80
2017,02,14,08,37,3.80
2017,02,14,08,38,3.80
2017,02,14,08,39,3.80
2017,02,14,08,40,3.80
2017,02,14,08,41,3.80
2017,02,14,08,42,3.80
2017,02,14,08,43,3.90
2017,02,14,08,44,3.90
2017,02,14,08,45,3.90
2017,02,14,08,46,3.90
2017,02,14,08,47,3.90
2017,02,14,08,48,3.90
2017,02,14,08,49,3.90
2017,02,14,08,50,4.00
2017,02,14,08,51,4.00
2017,02,14,08,52,4.00
2017,02,14,08,53,4.00
2017,02,14,08,54,4.10
2017,02,14,08,55,4.10
2017,02,14,08,56,4.10
2017,02,14,08,57,4.10
2017,02,14,08,58,4.10
2017,02,14,08,59,4.10
2017,02,14,09,00,4.10
2017,02,14,09,01,4.10
2017,02,14,09,02,4.20
2017,02,14,09,03,4.20
2017,02,14,09,04,4.20
2017,02,14,09,05,4.20
2017,02,14,09,06,4.20
2017,02,14,09,07,4.20
2017,02,14,09,08,4.20
2017,02,14,09,09,4.30
2017,02,14,09,10,4.30
2017,02,14,09,11,4.30
2017,02,14,09,12,4.30
2017,02,14,09,13,4.30
2017,02,14,09,14,4.30
2017,02,14,09,15,4.30
2017,02,14,09,16,4.40
2017,02,14,09,17,4.40
2017,02,14,09,18,4.40
2017,02,14,09,19,4.40
2017,02,14,09,20,4.40
2017,02,14,09,21,4.40
2017,02,14,09,22,4.40
2017,02,14,09,23,4.40
2017,02,14,09,24,4.50
2017,02,14,09,25,4.50
2017,02,14,09,26,4.50
2017,02,14,09,27,4.50
2017,02,14,09,28,4.50
2017,02,14,09,29,4.50
2017,02,14,09,30,4.50
2017,02,14,09,31,4.50
2017,02,14,09,32,4.50
2017,02,14,09,33,4.50
2017,02,14,09,34,4.50
2017,02,14,09,35,4.60
2017,02,14,09,36,4.60
2017,02,14,09,37,4.60
2017,02,14,09,38,4.60
2017,02,14,09,39,4.60
2017,02,14,09,40,4.60
2017,02,14,09,41,4.60
2017,02,14,09,42,4.60
2017,02,14,09,43,4.60
2017,02,14,09,44,4.70
2017,02,14,09,45,4.70
2017,02,14,09,46,4.70
2017,02,14,09,47,4.70
2017,02,14,09,48,4.70
2017,02,14,09,49,4.70
2017,02,14,09,50,4.70
2017,02,14,09,51,4.70
2017,02,14,09,52,4.80
2017,02,14,09,53,4.80
2017,02,14,09,54,4.80
2017,02,14,09,55,4.80
2017,02,14,09,56,4.90
2017,02,14,09,57,5.00
2017,02,14,09,58,5.00
2017,02,14,09,59,5.10
2017,02,14,10,00,5.20
2017,02,14,10,01,5.30
2017,02,14,10,02,5.40
2017,02,14,10,03,5.40
2017,02,14,10,04,5.50
2017,02,14,10,05,5.60
2017,02,14,10,06,5.60
2017,02,14,10,07,5.70
2017,02,14,10,08,5.70
2017,02,14,10,09,5.80
2017,02,14,10,10,5.90
2017,02,14,10,11,5.90
2017,02,14,10,12,6.00
2017,02,14,10,13,6.10
2017,02,14,10,14,6.10
2017,02,14,10,15,6.10
2017,02,14,10,16,6.10
2017,02,14,10,17,6.10
2017,02,14,10,18,6.10
2017,02,14,10,19,6.20
2017,02,14,10,20,6.20
2017,02,14,10,21,6.20
2017,02,14,10,22,6.20
2017,02,14,10,23,6.20
2017,02,14,10,24,6.30
2017,02,14,10,25,6.30
2017,02,14,10,26,6.30
2017,02,14,10,27,6.30
2017,02,14,10,28,6.30
2017,02,14,10,29,6.30
2017,02,14,10,30,6.30
2017,02,14,10,31,6.30
2017,02,14,10,32,6.30
2017,02,14,10,33,6.30
2017,02,14,10,34,6.30
2017,02,14,10,35,6.30
2017,02,14,10,36,6.30
2017,02,14,10,37,6.30
2017,02,14,10,38,6.30
2017,02,14,10,39,6.20
2017,02,14,10,40,6.20
2017,02,14,10,41,6.20
2017,02,14,10,42,6.20
2017,02,14,10,43,6.20
2017,02,14,10,44,6.20
2017,02,14,10,45,6.20
2017,02,14,10,46,6.20
2017,02,14,10,47,6.20
2017,02,14,10,48,6.20
2017,02,14,10,49,6.20
2017,02,14,10,50,6.20
2017,02,14,10,51,6.20
2017,02,14,10,52,6.30
2017,02,14,10,53,6.30
2017,02,14,10,54,6.30
2017,02,14,10,55,6.40
2017,02,14,10,56,6.40
2017,02,14,10,57,6.50
2017,02,14,10,58,6.50
2017,02,14,10,59,6.60
2017,02,14,11,00,6.70
2017,02,14,11,01,6.70
2017,02,14,11,02,6.80
2017,02,14,11,03,6.80
2017,02,14,11,04,6.90
2017,02,14,11,05,6.90
2017,02,14,11,06,6.90
2017,02,14,11,07,7.00
2017,02,14,11,08,7.00
2017,02,14,11,09,7.10
2017,02,14,11,10,7.10
2017,02,14,11,11,7.20
2017,02,14,11,12,7.20
2017,02,14,11,13,7.20
2017,02,14,11,14,7.30
2017,02,14,11,15,7.30
2017,02,14,11,16,7.30
2017,02,14,11,17,7.30
2017,02,14,11,18,7.30
2017,02,14,11,19,7.30
2017,02,14,11,20,7.30
2017,02,14,11,21,7.30
2017,02,14,11,22,7.40
2017,02,14,11,23,7.40
2017,02,14,11,24,7.40
2017,02,14,11,25,7.40
2017,02,14,11,26,7.40
2017,02,14,11,27,7.50
2017,02,14,11,28,7.50
2017,02,14,11,29,7.60
2017,02,14,11,30,7.60
2017,02,14,11,31,7.60
2017,02,14,11,32,7.60
2017,02,14,11,33,7.60
2017,02,14,11,34,7.50
2017,02,14,11,35,7.50
2017,02,14,11,36,7.50
2017,02,14,11,37,7.50
2017,02,14,11,38,7.60
2017,02,14,11,39,7.60
2017,02,14,11,40,7.60
2017,02,14,11,41,7.60
2017,02,14,11,42,7.60
2017,02,14,11,43,7.60
2017,02,14,11,44,7.60
2017,02,14,11,45,7.70
2017,02,14,11,46,7.70
2017,02,14,11,47,7.70
2017,02,14,11,48,7.70
2017,02,14,11,49,7.70
2017,02,14,11,50,7.80
2017,02,14,11,51,7.80
2017,02,14,11,52,7.80
2017,02,14,11,53,7.80
2017,02,14,11,54,7.90
2017,02,14,11,55,7.90
2017,02,14,11,56,7.90
2017,02,14,11,57,7.90
2017,02,14,11,58,8.00
2017,02,14,11,59,8.00
2017,02,14,12,00,8.00
2017,02,14,12,01,8.00
2017,02,14,12,02,8.10
2017,02,14,12,03,8.10
2017,02,14,12,04,8.10
2017,02,14,12,05,8.10
2017,02,14,12,06,8.10
2017,02,14,12,07,8.20
2017,02,14,12,08,8.20
2017,02,14,12,09,8.20
2017,02,14,12,10,8.20
2017,02,14,12,11,8.20
2017,02,14,12,12,8.30
2017,02,14,12,13,8.30
2017,02,14,12,14,8.30
2017,02,14,12,15,8.30
2017,02,14,12,16,8.40
2017,02,14,12,17,8.40
2017,02,14,12,18,8.40
2017,02,14,12,19,8.50
2017,02,14,12,20,8.50
2017,02,14,12,21,8.50
2017,02,14,12,22,8.60
2017,02,14,12,23,8.60
2017,02,14,12,24,8.60
2017,02,14,12,25,8.60
2017,02,14,12,26,8.70
2017,02,14,12,27,8.70
2017,02,14,12,28,8.70
2017,02,14,12,29,8.70
2017,02,14,12,30,8.70
2017,02,14,12,31,8.70
2017,02,14,12,32,8.60
2017,02,14,12,33,8.60
2017,02,14,12,34,8.60
2017,02,14,12,35,8.60
2017,02,14,12,36,8.60
2017,02,14,12,37,8.50
2017,02,14,12,38,8.40
2017,02,14,12,39,8.40
2017,02,14,12,40,8.40
2017,02,14,12,41,8.40
2017,02,14,12,42,8.30
2017,02,14,12,43,8.30
2017,02,14,12,44,8.30
2017,02,14,12,45,8.30
2017,02,14,12,46,8.30
2017,02,14,12,47,8.30
2017,02,14,12,48,8.30
2017,02,14,12,49,8.30
2017,02,14,12,50,8.30
2017,02,14,12,51,8.30
2017,02,14,12,52,8.30
2017,02,14,12,53,8.30
2017,02,14,12,54,8.30
2017,02,14,12,55,8.40
2017,02,14,12,56,8.40
2017,02,14,12,57,8.40
2017,02,14,12,58,8.40
2017,02,14,12,59,8.40
2017,02,14,13,00,8.40
2017,02,14,13,01,8.40
2017,02,14,13,02,8.40
2017,02,14,13,03,8.40
2017,02,14,13,04,8.40
2017,02,14,13,05,8.30
2017,02,14,13,06,8.30
2017,02,14,13,07,8.30
2017,02,14,13,08,8.30
2017,02,14,13,09,8.30
2017,02,14,13,10,8.30
2017,02,14,13,11,8.30
2017,02,14,13,12,8.30
2017,02,14,13,13,8.30
2017,02,14,13,14,8.30
2017,02,14,13,15,8.30
2017,02,14,13,16,8.40
2017,02,14,13,17,8.40
2017,02,14,13,18,8.40
2017,02,14,13,19,8.40
2017,02,14,13,20,8.40
2017,02,14,13,21,8.40
2017,02,14,13,22,8.30
2017,02,14,13,23,8.30
2017,02,14,13,24,8.30
2017,02,14,13,25,8.30
2017,02,14,13,26,8.30
2017,02,14,13,27,8.20
2017,02,14,13,28,8.20
2017,02,14,13,29,8.20
2017,02,14,13,30,8.10
2017,02,14,13,31,8.10
2017,02,14,13,32,8.10
2017,02,14,13,33,8.10
2017,02,14,13,34,8.10
2017,02,14,13,35,8.10
2017,02,14,13,36,8.10
2017,02,14,13,37,8.10
2017,02,14,13,38,8.10
2017,02,14,13,39,8.10
2017,02,14,13,40,8.20
2017,02,14,13,41,8.20
2017,02,14,13,42,8.20
2017,02,14,13,43,8.20
2017,02,14,13,44,8.20
2017,02,14,13,45,8.20
2017,02,14,13,46,8.20
2017,02,14,13,47,8.20
2017,02,14,13,48,8.10
2017,02,14,13,49,8.10
2017,02,14,13,50,8.10
2017,02,14,13,51,8.10
2017,02,14,13,52,8.10
2017,02,14,13,53,8.10
2017,02,14,13,54,8.10
2017,02,14,13,55,8.10
2017,02,14,13,56,8.10
2017,02,14,13,57,8.10
2017,02,14,13,58,8.10
2017,02,14,13,59,8.10
2017,02,14,14,00,8.10
2017,02,14,14,01,8.10
2017,02,14,14,02,8.10
2017,02,14,14,03,8.20
2017,02,14,14,04,8.20
2017,02,14,14,05,8.20
2017,02,14,14,06,8.20
2017,02,14,14,07,8.20
2017,02,14,14,08,8.20
2017,02,14,14,09,8.20
2017,02,14,14,10,8.20
2017,02,14,14,11,8.20
2017,02,14,14,12,8.30
2017,02,14,14,13,8.30
2017,02,14,14,14,8.30
2017,02,14,14,15,8.30
2017,02,14,14,16,8.30
2017,02,14,14,17,8.30
2017,02,14,14,18,8.40
2017,02,14,14,19,8.40
2017,02,14,14,20,8.40
2017,02,14,14,21,8.40
2017,02,14,14,22,8.40
2017,02,14,14,23,8.40
2017,02,14,14,24,8.40
2017,02,14,14,25,8.40
2017,02,14,14,26,8.40
2017,02,14,14,27,8.40
2017,02,14,14,28,8.50
2017,02,14,14,29,8.50
2017,02,14,14,30,8.50
2017,02,14,14,31,8.50
2017,02,14,14,32,8.50
2017,02,14,14,33,8.60
2017,02,14,14,34,8.60
2017,02,14,14,35,8.60
2017,02,14,14,36,8.60
2017,02,14,14,37,8.60
2017,02,14,14,38,8.60
2017,02,14,14,39,8.60
2017,02,14,14,40,8.60
2017,02,14,14,41,8.60
2017,02,14,14,42,8.60
2017,02,14,14,43,8.60
2017,02,14,14,44,8.60
2017,02,14,14,45,8.60
2017,02,14,14,46,8.60
2017,02,14,14,47,8.60
2017,02,14,14,48,8.60
2017,02,14,14,49,8.60
2017,02,14,14,50,8.60
2017,02,14,14,51,8.60
2017,02,14,14,52,8.60
2017,02,14,14,53,8.60
2017,02,14,14,54,8.60
2017,02,14,14,55,8.60
2017,02,14,14,56,8.50
2017,02,14,14,57,8.50
2017,02,14,14,58,8.50
2017,02,14,14,59,8.50
2017,02,14,15,00,8.40
2017,02,14,15,01,8.40
2017,02,14,15,02,8.40
2017,02,14,15,03,8.40
2017,02,14,15,04,8.40
2017,02,14,15,05,8.40
2017,02,14,15,06,8.40
2017,02,14,15,07,8.40
2017,02,14,15,08,8.40
2017,02,14,15,09,8.40
2017,02,14,15,10,8.40
2017,02,14,15,11,8.40
2017,02,14,15,12,8.40
2017,02,14,15,13,8.40
2017,02,14,15,14,8.40
2017,02,14,15,15,8.40
2017,02,14,15,16,8.40
2017,02,14,15,17,8.40
2017,02,14,15,18,8.40
2017,02,14,15,19,8.40
2017,02,14,15,20,8.40
2017,02,14,15,21,8.40
2017,02,14,15,22,8.40
2017,02,14,15,23,8.40
2017,02,14,15,24,8.40
2017,02,14,15,25,8.40
2017,02,14,15,26,8.40
2017,02,14,15,27,8.40
2017,02,14,15,28,8.40
2017,02,14,15,29,8.50
2017,02,14,15,30,8.50
2017,02,14,15,31,8.50
2017,02,14,15,32,8.50
2017,02,14,15,33,8.50
2017,02,14,15,34,8.50
2017,02,14,15,35,8.50
2017,02,14,15,36,8.50
2017,02,14,15,37,8.50
2017,02,14,15,38,8.50
2017,02,14,15,39,8.50
2017,02,14,15,40,8.50
2017,02,14,15,41,8.60
2017,02,14,15,42,8.60
2017,02,14,15,43,8.60
2017,02,14,15,44,8.60
2017,02,14,15,45,8.60
2017,02,14,15,46,8.50
2017,02,14,15,47,8.60
2017,02,14,15,48,8.60
2017,02,14,15,49,8.60
2017,02,14,15,50,8.60
2017,02,14,15,51,8.60
2017,02,14,15,52,8.60
2017,02,14,15,53,8.60
2017,02,14,15,54,8.60
2017,02,14,15,55,8.60
2017,02,14,15,56,8.50
2017,02,14,15,57,8.50
2017,02,14,15,58,8.50
2017,02,14,15,59,8.50
2017,02,14,16,00,8.50
2017,02,14,16,01,8.40
2017,02,14,16,02,8.40
2017,02,14,16,03,8.50
2017,02,14,16,04,8.50
2017,02,14,16,05,8.40
2017,02,14,16,06,8.40
2017,02,14,16,07,8.40
2017,02,14,16,08,8.40
2017,02,14,16,09,8.40
2017,02,14,16,10,8.40
2017,02,14,16,11,8.40
2017,02,14,16,12,8.30
2017,02,14,16,13,8.30
2017,02,14,16,14,8.30
2017,02,14,16,15,8.30
2017,02,14,16,16,8.30
2017,02,14,16,17,8.30
2017,02,14,16,18,8.30
2017,02,14,16,19,8.30
2017,02,14,16,20,8.30
2017,02,14,16,21,8.30
2017,02,14,16,22,8.30
2017,02,14,16,23,8.30
2017,02,14,16,24,8.30
2017,02,14,16,25,8.30
2017,02,14,16,26,8.30
2017,02,14,16,27,8.30
2017,02,14,16,28,8.30
2017,02,14,16,29,8.30
2017,02,14,16,30,8.40
2017,02,14,16,31,8.40
2017,02,14,16,32,8.40
2017,02,14,16,33,8.50
2017,02,14,16,34,8.50
2017,02,14,16,35,8.50
2017,02,14,16,36,8.50
2017,02,14,16,37,8.40
2017,02,14,16,38,8.40
2017,02,14,16,39,8.40
2017,02,14,16,40,8.40
2017,02,14,16,41,8.30
2017,02,14,16,42,8.30
2017,02,14,16,43,8.30
2017,02,14,16,44,8.30
2017,02,14,16,45,8.20
2017,02,14,16,46,8.20
2017,02,14,16,47,8.20
2017,02,14,16,48,8.20
2017,02,14,16,49,8.10
2017,02,14,16,50,8.10
2017,02,14,16,51,8.10
2017,02,14,16,52,8.10
2017,02,14,16,53,8.10
2017,02,14,16,54,8.10
2017,02,14,16,55,8.10
2017,02,14,16,56,8.10
2017,02,14,16,57,8.10
2017,02,14,16,58,8.10
2017,02,14,16,59,8.10
2017,02,14,17,00,8.10
2017,02,14,17,01,8.10
2017,02,14,17,02,8.10
2017,02,14,17,03,8.20
2017,02,14,17,04,8.10
2017,02,14,17,05,8.10
2017,02,14,17,06,8.10
2017,02,14,17,07,8.10
2017,02,14,17,08,8.10
2017,02,14,17,09,8.10
2017,02,14,17,10,8.20
2017,02,14,17,11,8.20
2017,02,14,17,12,8.20
2017,02,14,17,13,8.20
2017,02,14,17,14,8.20
2017,02,14,17,15,8.10
2017,02,14,17,16,8.10
2017,02,14,17,17,8.10
2017,02,14,17,18,8.10
2017,02,14,17,19,8.00
2017,02,14,17,20,8.00
2017,02,14,17,21,7.90
2017,02,14,17,22,7.90
2017,02,14,17,23,7.80
2017,02,14,17,24,7.80
2017,02,14,17,25,7.80
2017,02,14,17,26,7.80
2017,02,14,17,27,7.70
2017,02,14,17,28,7.70
2017,02,14,17,29,7.70
2017,02,14,17,30,7.70
2017,02,14,17,31,7.60
2017,02,14,17,32,7.60
2017,02,14,17,33,7.60
2017,02,14,17,34,7.60
2017,02,14,17,35,7.60
2017,02,14,17,36,7.50
2017,02,14,17,37,7.50
2017,02,14,17,38,7.50
2017,02,14,17,39,7.50
2017,02,14,17,40,7.50
2017,02,14,17,41,7.50
2017,02,14,17,42,7.50
2017,02,14,17,43,7.60
2017,02,14,17,44,7.60
2017,02,14,17,45,7.50
2017,02,14,17,46,7.50
2017,02,14,17,47,7.40
2017,02,14,17,48,7.40
2017,02,14,17,49,7.40
2017,02,14,17,50,7.30
2017,02,14,17,51,7.30
2017,02,14,17,52,7.30
2017,02,14,17,53,7.30
2017,02,14,17,54,7.20
2017,02,14,17,55,7.20
2017,02,14,17,56,7.20
2017,02,14,17,57,7.10
2017,02,14,17,58,7.10
2017,02,14,17,59,7.00
2017,02,14,18,00,7.00
2017,02,14,18,01,6.90
2017,02,14,18,02,6.90
2017,02,14,18,03,6.90
2017,02,14,18,04,6.80
2017,02,14,18,05,6.80
2017,02,14,18,06,6.70